• In Hungary
  • List of Countries
  • For 7 days
  • Water Temperature
  • Satellite Maps
  • Weather Map
  • News
  • Weather Widgets
  • user-avatar
    Login

    Hourly Weather Mendoza

    Today, 21 November, Tuesday

    Time Temperature Precipitation Wind Pressure Humidity
    00:00 +18°C° 0 mm 2 mps 699 mmHg 35%
    01:00 +17°C° 0 mm 2 mps 699 mmHg 35%
    02:00 +17°C° 0 mm 2 mps 699 mmHg 36%
    03:00 +16°C° 0 mm 1 mps 699 mmHg 36%
    04:00 +15°C° 0 mm 1 mps 699 mmHg 37%
    05:00 +18°C° 0 mm 1 mps 700 mmHg 34%
    06:00 +18°C° 0 mm 2 mps 700 mmHg 32%
    07:00 +20°C° 0 mm 2 mps 701 mmHg 29%
    08:00 +21°C° 0 mm 3 mps 701 mmHg 26%
    09:00 +24°C° 0 mm 3 mps 701 mmHg 23%
    10:00 +25°C° 0 mm 4 mps 701 mmHg 21%
    11:00 +26°C° 0 mm 4 mps 700 mmHg 20%
    12:00 +27°C° 0 mm 4 mps 700 mmHg 18%
    13:00 +28°C° 0 mm 4 mps 699 mmHg 17%
    14:00 +28°C° 0 mm 4 mps 699 mmHg 17%
    15:00 +29°C° 0 mm 4 mps 699 mmHg 16%
    16:00 +29°C° 0 mm 4 mps 698 mmHg 16%
    17:00 +28°C° 0 mm 4 mps 698 mmHg 17%
    18:00 +27°C° 0 mm 3 mps 699 mmHg 18%
    19:00 +26°C° 0 mm 3 mps 699 mmHg 19%
    20:00 +25°C° 0 mm 3 mps 699 mmHg 19%
    21:00 +24°C° 0 mm 3 mps 699 mmHg 20%
    22:00 +24°C° 0 mm 2 mps 700 mmHg 20%
    23:00 +23°C° 0 mm 2 mps 699 mmHg 21%

    Tomorrow, 22 November, Wednesday

    Time Temperature Precipitation Wind Pressure Humidity
    00:00 +21°C° 0 mm 2 mps 699 mmHg 21%
    01:00 +20°C° 0 mm 2 mps 698 mmHg 22%
    02:00 +20°C° 0 mm 2 mps 698 mmHg 23%
    03:00 +19°C° 0 mm 2 mps 697 mmHg 25%
    04:00 +19°C° 0 mm 1 mps 697 mmHg 26%
    05:00 +20°C° 0 mm 2 mps 697 mmHg 23%
    06:00 +23°C° 0 mm 2 mps 698 mmHg 21%
    07:00 +25°C° 0 mm 2 mps 698 mmHg 18%
    08:00 +27°C° 0 mm 3 mps 698 mmHg 17%
    09:00 +28°C° 0 mm 4 mps 697 mmHg 16%
    10:00 +30°C° 0 mm 4 mps 697 mmHg 15%
    11:00 +32°C° 0 mm 5 mps 697 mmHg 14%
    12:00 +33°C° 0 mm 5 mps 696 mmHg 14%
    13:00 +34°C° 0 mm 5 mps 696 mmHg 14%
    14:00 +34°C° 0 mm 4 mps 695 mmHg 14%
    15:00 +34°C° 0 mm 4 mps 695 mmHg 14%
    16:00 +34°C° 0 mm 4 mps 694 mmHg 14%
    17:00 +33°C° 0 mm 3 mps 694 mmHg 15%
    18:00 +30°C° 0 mm 3 mps 695 mmHg 17%
    19:00 +29°C° 0 mm 2 mps 695 mmHg 18%
    20:00 +28°C° 0 mm 2 mps 695 mmHg 19%
    21:00 +28°C° 0 mm 3 mps 695 mmHg 19%
    22:00 +27°C° 0 mm 3 mps 696 mmHg 19%
    23:00 +26°C° 0 mm 3 mps 695 mmHg 20%

    Day after tomorrow, 23 November, Thursday

    Time Temperature Precipitation Wind Pressure Humidity
    00:00 +25°C° 0 mm 3 mps 695 mmHg 21%
    01:00 +24°C° 0 mm 3 mps 694 mmHg 22%
    02:00 +24°C° 0 mm 3 mps 695 mmHg 22%
    03:00 +22°C° 0 mm 3 mps 695 mmHg 23%
    04:00 +21°C° 0 mm 2 mps 695 mmHg 23%
    05:00 +24°C° 0 mm 3 mps 695 mmHg 22%
    06:00 +26°C° 0 mm 4 mps 696 mmHg 20%
    07:00 +27°C° 0 mm 4 mps 696 mmHg 18%
    08:00 +29°C° 0 mm 5 mps 696 mmHg 17%
    09:00 +30°C° 0 mm 5 mps 696 mmHg 16%
    10:00 +33°C° 0 mm 5 mps 697 mmHg 15%
    11:00 +33°C° 0 mm 5 mps 696 mmHg 15%
    12:00 +34°C° 0 mm 5 mps 696 mmHg 15%
    13:00 +35°C° 0 mm 5 mps 696 mmHg 15%
    14:00 +35°C° 0 mm 5 mps 695 mmHg 15%
    15:00 +35°C° 0 mm 5 mps 695 mmHg 16%
    16:00 +35°C° 0 mm 5 mps 695 mmHg 16%
    17:00 +33°C° 0 mm 5 mps 695 mmHg 18%
    18:00 +32°C° 0 mm 6 mps 696 mmHg 20%
    19:00 +29°C° 0 mm 6 mps 696 mmHg 22%
    20:00 +28°C° 0 mm 5 mps 697 mmHg 22%
    21:00 +27°C° 0 mm 5 mps 697 mmHg 23%
    22:00 +26°C° 0 mm 4 mps 697 mmHg 23%
    23:00 +25°C° 0 mm 4 mps 697 mmHg 26%

    24 November, Friday

    Time Temperature Precipitation Wind Pressure Humidity
    00:00 +23°C° 0 mm 4 mps 697 mmHg 29%
    01:00 +22°C° 0 mm 4 mps 696 mmHg 31%
    02:00 +21°C° 0 mm 4 mps 696 mmHg 34%
    03:00 +21°C° 0 mm 4 mps 695 mmHg 36%
    04:00 +20°C° 0 mm 4 mps 695 mmHg 38%
    05:00 +21°C° 0 mm 4 mps 695 mmHg 37%
    06:00 +21°C° 0 mm 4 mps 696 mmHg 36%
    07:00 +22°C° 0 mm 5 mps 696 mmHg 35%
    08:00 +25°C° 0 mm 5 mps 696 mmHg 31%
    09:00 +26°C° 0 mm 5 mps 696 mmHg 27%
    10:00 +28°C° 0 mm 5 mps 696 mmHg 24%
    11:00 +29°C° 0 mm 5 mps 696 mmHg 22%
    12:00 +30°C° 0 mm 6 mps 695 mmHg 21%
    13:00 +32°C° 0 mm 6 mps 695 mmHg 19%
    14:00 +32°C° 0 mm 6 mps 695 mmHg 19%
    15:00 +32°C° 0 mm 6 mps 695 mmHg 18%
    16:00 +32°C° 0 mm 6 mps 695 mmHg 18%
    17:00 +30°C° 0 mm 5 mps 696 mmHg 19%
    18:00 +29°C° 0 mm 4 mps 697 mmHg 21%
    19:00 +27°C° 0 mm 3 mps 697 mmHg 22%
    20:00 +27°C° 0 mm 2 mps 698 mmHg 25%
    21:00 +26°C° 0 mm 2 mps 698 mmHg 27%
    22:00 +25°C° 0 mm 2 mps 698 mmHg 29%
    23:00 +24°C° 0 mm 2 mps 698 mmHg 33%

    25 November, Saturday

    Time Temperature Precipitation Wind Pressure Humidity
    00:00 +24°C° 0 mm 2 mps 698 mmHg 38%
    01:00 +23°C° 0 mm 2 mps 698 mmHg 42%
    02:00 +21°C° 0 mm 2 mps 698 mmHg 42%
    03:00 +21°C° 0 mm 2 mps 698 mmHg 42%
    04:00 +20°C° 0 mm 2 mps 698 mmHg 42%
    05:00 +23°C° 0 mm 2 mps 699 mmHg 36%
    06:00 +24°C° 0 mm 2 mps 700 mmHg 31%
    07:00 +26°C° 0 mm 2 mps 700 mmHg 26%
    08:00 +27°C° 0 mm 2 mps 700 mmHg 22%
    09:00 +28°C° 0 mm 3 mps 700 mmHg 19%
    10:00 +30°C° 0 mm 3 mps 699 mmHg 16%
    11:00 +31°C° 0 mm 3 mps 699 mmHg 15%
    12:00 +33°C° 0 mm 3 mps 698 mmHg 14%
    13:00 +34°C° 0 mm 4 mps 698 mmHg 13%
    14:00 +34°C° 0 mm 4 mps 697 mmHg 14%
    15:00 +34°C° 0 mm 4 mps 697 mmHg 14%
    16:00 +34°C° 0 mm 4 mps 697 mmHg 14%
    17:00 +33°C° 0 mm 3 mps 697 mmHg 16%
    18:00 +31°C° 0 mm 3 mps 697 mmHg 17%
    19:00 +30°C° 0 mm 2 mps 697 mmHg 19%
    20:00 +29°C° 0 mm 2 mps 697 mmHg 20%
    21:00 +28°C° 0 mm 2 mps 697 mmHg 22%
    22:00 +27°C° 0 mm 2 mps 698 mmHg 24%
    23:00 +26°C° 0 mm 2 mps 697 mmHg 25%

    26 November, Sunday

    Time Temperature Precipitation Wind Pressure Humidity
    00:00 +25°C° 0 mm 2 mps 696 mmHg 27%
    01:00 +25°C° 0 mm 2 mps 696 mmHg 28%
    02:00 +24°C° 0 mm 2 mps 696 mmHg 28%
    03:00 +23°C° 0 mm 1 mps 695 mmHg 28%
    04:00 +23°C° 0 mm 1 mps 695 mmHg 28%
    05:00 +25°C° 0 mm 1 mps 695 mmHg 25%
    06:00 +26°C° 0 mm 1 mps 695 mmHg 21%
    07:00 +28°C° 0 mm 1 mps 695 mmHg 17%
    08:00 +30°C° 0 mm 3 mps 695 mmHg 15%
    09:00 +33°C° 0 mm 4 mps 695 mmHg 14%
    10:00 +34°C° 0 mm 5 mps 694 mmHg 13%
    11:00 +35°C° 0 mm 5 mps 694 mmHg 12%
    12:00 +36°C° 0 mm 6 mps 693 mmHg 12%
    13:00 +38°C° 0 mm 6 mps 693 mmHg 11%
    14:00 +38°C° 0 mm 6 mps 692 mmHg 11%
    15:00 +38°C° 0 mm 6 mps 692 mmHg 11%
    16:00 +37°C° 0 mm 5 mps 691 mmHg 11%
    17:00 +36°C° 0 mm 4 mps 691 mmHg 12%
    18:00 +34°C° 0 mm 4 mps 692 mmHg 13%
    19:00 +33°C° 0 mm 3 mps 692 mmHg 14%
    20:00 +31°C° 0 mm 3 mps 692 mmHg 15%
    21:00 +30°C° 0 mm 4 mps 692 mmHg 16%
    22:00 +29°C° 0 mm 4 mps 692 mmHg 17%
    23:00 +28°C° 0 mm 4 mps 692 mmHg 18%
    Show more